Weather History for KONZ - October, 2013

Change the Weather History Date:

Thursday, October 31, 2013

  Actual Average (KDTW) Record (KDTW)
Temperature  
Mean Temperature 56 °F 48 °F  
Max Temperature 60 °F 56 °F 79 °F (1950)
Min Temperature 53 °F 39 °F 21 °F (1988)
Degree Days  
Heating Degree Days 8 18  
Month to date heating degree days 397  
Since 1 July heating degree days 511  
Cooling Degree Days 0 0  
Month to date cooling degree days 8  
Year to date cooling degree days 803  
Growing Degree Days 6 (Base 50)    
Moisture  
Dew Point 54 °F    
Average Humidity 92    
Maximum Humidity 94    
Minimum Humidity 88    
Precipitation  
Precipitation 1.61 in 0.08 in 1.59 in (2013)
Month to date precipitation 2.52  
Year to date precipitation 28.22  
Snow  
Snow 0.00 in 0.00 in 0.10 in (1993)
Month to date snowfall 0.1  
Since 1 July snowfall 0.1  
Since 1 September snowfall 0.1  
Snow Depth -    
Sea Level Pressure  
Sea Level Pressure 29.61 in    
Wind  
Wind Speed 11 mph (South)    
Max Wind Speed 24 mph    
Max Gust Speed 37 mph    
Visibility 4 miles    
Events Rain    
T = Trace of Precipitation, MM = Missing Value Source: NWS Daily Summary

Daily Weather History Graph

Daily Weather History Graph

Search for Another Location

Airport or City:

Trip Planner

Search our weather history database for the weather conditions in past years. The results will help you decide how hot, cold, wet, or windy it might be!

Date:

Astronomy

Oct. 31, 2013 Rise Set
Actual Time 8:04 AM EDT 6:27 PM EDT
Civil Twilight 7:35 AM EDT 6:56 PM EDT
Nautical Twilight 7:02 AM EDT 7:29 PM EDT
Astronomical Twilight 6:29 AM EDT 8:01 PM EDT
Moon 4:49 AM EDT (10/31) 4:47 PM EDT (10/31)
Length of Visible Light 11h 20m
Length of Day
10h 22m
Waning Crescent, 10% of the Moon is Illuminated
Oct 31
Waning Crescent
Nov 3
New
Nov 10
First Quarter
Nov 17
Full
Nov 25
Last Quarter

Hourly Weather History & Observations

Time (EDT) Temp. Dew Point Humidity Pressure Visibility Wind Dir Wind Speed Gust Speed Precip Events Conditions
12:14 AM 55.4 °F 51.8 °F 88% 29.95 in 7.0 mi SE 10.4 mph 17.3 mph N/A Rain Rain
12:34 AM 55.4 °F 51.8 °F 88% 29.94 in 4.0 mi SSE 9.2 mph - 0.03 in Rain Rain
12:54 AM 55.4 °F 51.8 °F 88% 29.94 in 3.0 mi SSE 9.2 mph - 0.23 in Rain Heavy Rain
1:14 AM 55.4 °F 53.6 °F 94% 29.92 in 4.0 mi SE 5.8 mph 16.1 mph 0.14 in Rain Rain
1:34 AM 55.4 °F 53.6 °F 94% 29.90 in 2.0 mi SE 8.1 mph - 0.44 in Rain Heavy Rain
1:54 AM 55.4 °F 53.6 °F 94% 29.91 in 2.0 mi Calm Calm - 0.54 in Rain Heavy Rain
2:14 AM 55.4 °F 53.6 °F 94% 29.88 in 4.0 mi SE 9.2 mph - 0.08 in Rain Light Rain
2:34 AM 55.4 °F 53.6 °F 94% 29.87 in 4.0 mi SE 9.2 mph - 0.10 in Rain Light Rain
2:54 AM 55.4 °F 53.6 °F 94% 29.86 in 2.5 mi SSE 9.2 mph - 0.10 in Rain Light Rain
3:14 AM 55.4 °F 53.6 °F 94% 29.85 in 2.0 mi SSE 9.2 mph - 0.01 in Rain Light Rain
3:34 AM 55.4 °F 53.6 °F 94% 29.83 in 1.5 mi SSE 10.4 mph - 0.02 in Rain Rain
3:54 AM 57.2 °F 55.4 °F 94% 29.82 in 1.2 mi South 10.4 mph - 0.03 in Rain Light Rain
4:14 AM 53.6 °F 51.8 °F 94% 29.81 in 0.2 mi South 6.9 mph - N/A   Drizzle
4:34 AM 55.4 °F 51.8 °F 88% 29.80 in 0.2 mi South 9.2 mph - 0.01 in Rain Rain
4:54 AM 55.4 °F 53.6 °F 94% 29.79 in 1.2 mi South 12.7 mph - 0.02 in Rain Rain
5:14 AM 55.4 °F 53.6 °F 94% 29.78 in 1.8 mi South 11.5 mph - 0.01 in Rain Light Rain
5:34 AM 60.8 °F 57.2 °F 88% 29.78 in 5.0 mi SSW 13.8 mph - 0.01 in Rain Rain
5:54 AM 60.8 °F 59.0 °F 94% 29.78 in 10.0 mi SSW 12.7 mph - 0.02 in   Drizzle
6:13 AM 60.8 °F 57.2 °F 88% 29.77 in 5.0 mi South 11.5 mph 17.3 mph N/A   Drizzle
6:34 AM 55.4 °F 53.6 °F 94% 29.77 in 2.0 mi South 10.4 mph - N/A   Overcast
6:54 AM 55.4 °F 53.6 °F 94% 29.77 in 2.0 mi South 10.4 mph - N/A Rain Light Rain
7:14 AM 57.2 °F 55.4 °F 94% 29.77 in 4.0 mi SSW 11.5 mph - N/A   Drizzle
7:34 AM 57.2 °F 55.4 °F 94% 29.76 in 3.0 mi South 10.4 mph - 0.01 in Rain Light Rain
7:55 AM 55.4 °F 53.6 °F 94% 29.75 in 2.0 mi South 8.1 mph - 0.01 in Rain Light Rain
8:14 AM 57.2 °F 53.6 °F 88% 29.74 in 3.0 mi South 9.2 mph - N/A Rain Rain
8:34 AM 55.4 °F 51.8 °F 88% 29.73 in 2.5 mi South 9.2 mph - 0.01 in Rain Rain
8:55 AM 55.4 °F 51.8 °F 88% 29.73 in 1.8 mi South 8.1 mph - 0.01 in   Overcast
9:14 AM 53.6 °F 51.8 °F 94% 29.73 in 1.2 mi South 5.8 mph - N/A Rain Rain
9:34 AM 55.4 °F 51.8 °F 88% 29.74 in 1.2 mi South 9.2 mph - 0.01 in Rain Light Rain
9:54 AM 55.4 °F 53.6 °F 94% 29.73 in 1.8 mi South 9.2 mph - 0.02 in Rain Light Rain
10:14 AM 55.4 °F 53.6 °F 94% 29.71 in 2.5 mi South 8.1 mph - 0.01 in Rain Light Rain
10:34 AM 55.4 °F 51.8 °F 88% 29.71 in 2.5 mi South 9.2 mph - 0.01 in   Mostly Cloudy
10:54 AM 55.4 °F 53.6 °F 94% 29.70 in 4.0 mi South 9.2 mph - 0.01 in   Drizzle
11:14 AM 55.4 °F 53.6 °F 94% 29.69 in 5.0 mi South 11.5 mph - 0.01 in Rain Light Rain
11:34 AM 59.0 °F 55.4 °F 88% 29.69 in 5.0 mi SSW 16.1 mph - 0.03 in Rain Rain
11:54 AM 60.8 °F 57.2 °F 88% 29.68 in 5.0 mi SSW 16.1 mph 24.2 mph 0.07 in Rain Rain
12:14 PM 60.8 °F 57.2 °F 88% 29.67 in 7.0 mi SSW 12.7 mph 23.0 mph 0.03 in Rain Rain
12:34 PM 59.0 °F 55.4 °F 88% 29.66 in 7.0 mi SSW 13.8 mph 19.6 mph 0.04 in Rain Light Rain
12:54 PM 59.0 °F 55.4 °F 88% 29.65 in 7.0 mi SSW 15.0 mph - 0.05 in Rain Light Rain
1:14 PM 57.2 °F 55.4 °F 94% 29.64 in 5.0 mi South 12.7 mph - 0.02 in Rain Light Rain
1:34 PM 55.4 °F 53.6 °F 94% 29.63 in 2.5 mi South 9.2 mph - 0.05 in Rain Light Rain
1:54 PM 53.6 °F 51.8 °F 94% 29.62 in 1.2 mi South 6.9 mph - 0.06 in Rain Rain
2:14 PM 55.4 °F 53.6 °F 94% 29.61 in 4.0 mi South 12.7 mph - 0.02 in Rain Rain
2:34 PM 55.4 °F 53.6 °F 94% 29.59 in 4.0 mi South 12.7 mph - 0.03 in Rain Light Rain
2:54 PM 55.4 °F 53.6 °F 94% 29.57 in 3.0 mi South 11.5 mph - 0.04 in Rain Rain
3:14 PM 55.4 °F 53.6 °F 94% 29.55 in 2.5 mi South 9.2 mph - N/A Rain Light Rain
3:34 PM 55.4 °F 53.6 °F 94% 29.54 in 2.0 mi South 10.4 mph - 0.02 in Rain Light Rain
3:54 PM 55.4 °F 51.8 °F 88% 29.52 in 1.8 mi South 11.5 mph - 0.02 in Rain Light Rain
4:14 PM 55.4 °F 53.6 °F 94% 29.50 in 2.5 mi South 12.7 mph - 0.02 in Rain Light Rain
4:34 PM 55.4 °F 53.6 °F 94% 29.49 in 4.0 mi South 13.8 mph 20.7 mph 0.03 in Rain Rain
4:54 PM 55.4 °F 53.6 °F 94% 29.48 in 3.0 mi South 12.7 mph 19.6 mph 0.07 in Rain Rain
5:14 PM 55.4 °F 53.6 °F 94% 29.46 in 3.0 mi South 12.7 mph - 0.04 in Rain Rain
5:34 PM 55.4 °F 53.6 °F 94% 29.45 in 4.0 mi South 12.7 mph - 0.07 in Rain Heavy Rain
5:54 PM 55.4 °F 53.6 °F 94% 29.43 in 3.0 mi South 10.4 mph 18.4 mph 0.07 in   Drizzle
6:14 PM 55.4 °F 53.6 °F 94% 29.41 in 2.0 mi SSE 12.7 mph - 0.02 in   Heavy Drizzle
6:34 PM 55.4 °F 53.6 °F 94% 29.39 in 2.5 mi SSE 13.8 mph 20.7 mph 0.03 in Rain Light Rain
6:54 PM 55.4 °F 53.6 °F 94% 29.38 in 5.0 mi South 13.8 mph - 0.04 in Rain Light Rain
7:14 PM 55.4 °F 53.6 °F 94% 29.37 in 5.0 mi South 15.0 mph - N/A   Overcast
7:34 PM 55.4 °F 53.6 °F 94% 29.35 in 10.0 mi South 17.3 mph - N/A   Overcast
7:54 PM 55.4 °F 53.6 °F 94% 29.35 in 10.0 mi South 16.1 mph - N/A   Overcast
8:14 PM 55.4 °F 53.6 °F 94% 29.33 in 5.0 mi South 15.0 mph - N/A   Overcast
8:34 PM 57.2 °F 53.6 °F 88% 29.32 in 3.0 mi South 17.3 mph - 0.03 in Rain Rain
8:55 PM 57.2 °F 55.4 °F 94% 29.29 in 2.0 mi South 10.4 mph - 0.07 in Rain Heavy Rain
9:14 PM 57.2 °F 55.4 °F 94% 29.27 in 1.5 mi SSE 10.4 mph - 0.01 in Rain Rain
9:34 PM 57.2 °F 55.4 °F 94% 29.25 in 5.0 mi South 15.0 mph - 0.01 in   Overcast
9:54 PM 55.4 °F 53.6 °F 94% 29.22 in 7.0 mi South 15.0 mph - 0.02 in Rain Light Rain
10:14 PM 57.2 °F 55.4 °F 94% 29.19 in 7.0 mi South 24.2 mph 29.9 mph N/A   Overcast
10:34 PM 59.0 °F 57.2 °F 94% 29.22 in 10.0 mi SW 13.8 mph 36.8 mph N/A   Overcast
10:54 PM 60.8 °F 57.2 °F 88% 29.21 in 7.0 mi South 19.6 mph 25.3 mph 0.03 in Rain Rain
11:14 PM 60.8 °F 57.2 °F 88% 29.19 in 10.0 mi South 13.8 mph - 0.04 in Rain Rain
11:34 PM 59.0 °F 57.2 °F 94% 29.19 in 7.0 mi SSW 11.5 mph 18.4 mph 0.07 in Rain Rain
11:54 PM 60.8 °F 57.2 °F 88% 29.18 in 10.0 mi SSW 13.8 mph 20.7 mph 0.08 in Rain Light Rain